Skip Page Navigation
NASA JPL Caltech
NASA Logo - Jet Propulsion Laboratory + View the NASA Portal
+ Near-Earth Object (NEO) Program
Search JPL
JPL Home Earth Solar System Stars & Galaxies Technology
JPL Solar System Dynamics
BODIES ORBITS EPHEMERIDES TOOLS PHYSICAL DATA DISCOVERY FAQ SITE MAP
JPL Small-Body Database Browser
Search: [ help ]  
(2001 SG286)
Classification: Apollo [NEO, PHA]          SPK-ID: 3082931
Ephemeris | Orbit Diagram | Orbital Elements | Physical Parameters | Close-Approach Data ]

[ hide orbit diagram ]
Orbit Diagram
Note: Make sure you have Java enabled on your browser to see the applet. This applet is provided as a 3D orbit visualization tool. The applet was implemented using 2-body methods, and hence should not be used for determining accurate long-term trajectories (over several years or decades) or planetary encounter circumstances. For accurate long-term ephemerides, please instead use our Horizons system.
Orbit Viewer

Additional Notes: the orbits shown in the applet are color coded. The planets are white lines, and the asteroid/comet is a blue line. The bright white line indicates the portion of the orbit that is above the ecliptic plane, and the darker portion is below the ecliptic plane. Likewise for the asteroid/comet orbit, the light blue indicates the portion above the ecliptic plane, and the dark blue the portion below the ecliptic plane.

Orbit Viewer applet originally written and kindly provided by Osamu Ajiki (AstroArts), and further modified by Ron Baalke (JPL).


Orbital Elements at Epoch 2456400.5 (2013-Apr-18.0) TDB
Reference: JPL 17 (heliocentric ecliptic J2000)
 Element Value Uncertainty (1-sigma)   Units 
e .3472069210307686 4.6504e-08  
a 1.358379307910578 9.4514e-09 AU
q .8867406108190398 6.7517e-08 AU
i 7.772444259258361 1.429e-05 deg
node 241.2409406497055 1.4972e-05 deg
peri 56.13623886892047 1.7796e-05 deg
M 141.544567299632 8.1995e-06 deg
tp 2456173.136515082776
(2012-Sep-02.63651508)
1.1307e-05 JED
period 578.2691355220494
1.58
6.0353e-06
1.652e-08
d
yr
n .6225474919649644 6.4974e-09 deg/d
Q 1.830018005002116 1.2733e-08 AU
  Orbit Determination Parameters
   # obs. used (total)      70  
   data-arc span      3805 days (10.42 yr)  
   first obs. used      2001-09-27  
   last obs. used      2012-02-27  
   planetary ephem.      DE405  
   SB-pert. ephem.      SB405-CPV-2  
   condition code      0  
   fit RMS      .69915  
   data source      ORB  
   producer      Otto Matic  
   solution date      2012-Feb-27 23:50:04  

Additional Information
 Earth MOID = .00526866 AU 
 T_jup = 4.780 
[ show covariance matrix ]

Ephemeris | Orbit Diagram | Orbital Elements | Physical Parameters | Close-Approach Data ]

Physical Parameter Table
Parameter Symbol Value Units Sigma Reference Notes
absolute magnitude H 20.878 mag .78663 17 autocmod 2.5b
SMASSII spectral type spec_B D   n/a Binzel et al. (2004) Meteorit. Planet. Sci. 39, 351-366  

[ show close-approach data ]
Ephemeris | Orbit Diagram | Orbital Elements | Physical Parameters | Close-Approach Data ]
ABOUT SSD CREDITS/AWARDS PRIVACY/COPYRIGHT GLOSSARY LINKS
FirstGov 2013-May-25 16:02 UT
(server date/time)  
NASA Home Page
Site Manager:   Donald K. Yeomans
Webmaster  Alan B. Chamberlin